Valparaiso, IN

6:51 PM CST on January 22, 2017 (GMT -0600)
Porter County Municipal

Weather History for KVPZ - January, 2014

Change the Weather History Date:

Friday, January 17, 2014

  Actual Average Record
Temperature  
Mean Temperature 17 °F 23 °F  
Max Temperature 21 °F 31 °F 55 °F (1999)
Min Temperature 12 °F 16 °F -4 °F (2009)
Degree Days  
Heating Degree Days 48 42  
Month to date heating degree days 647 705  
Since 1 July heating degree days 3330 3107  
Cooling Degree Days 0 0  
Month to date cooling degree days 0 0  
Year to date cooling degree days 0 0  
Moisture  
Dew Point 9 °F    
Average Humidity 80    
Maximum Humidity 88    
Minimum Humidity 68    
Precipitation  
Precipitation T in 0.06 in 0.29 in (2017)
Month to date precipitation 0.89 0.92  
Year to date precipitation 0.89 0.92  
Sea Level Pressure  
Sea Level Pressure 29.90 in    
Wind  
Wind Speed 12 mph (WSW)    
Max Wind Speed 17 mph    
Max Gust Speed 20 mph    
Visibility 8 miles    
Events Snow    
T = Trace of Precipitation, MM = Missing Value Source: NWS Daily Summary

Daily Weather History Graph

Daily Weather History Graph

Search for Another Location

Airport or City:

Trip Planner

Search our weather history database for the weather conditions in past years. The results will help you decide how hot, cold, wet, or windy it might be!

Date:

Astronomy

Jan. 17, 2014 Rise Set
Actual Time 7:11 AM CST 4:45 PM CST
Civil Twilight 6:40 AM CST 5:16 PM CST
Nautical Twilight 6:06 AM CST 5:50 PM CST
Astronomical Twilight 5:33 AM CST 6:23 PM CST
Moon 6:33 PM CST (1/17) 7:37 AM CST (1/17)
Length of Visible Light 10h 35m
Length of Day
9h 34m
Full, 98% of the Moon is Illuminated
Jan 17
Full
Jan 23
Last Quarter
Jan 30
New
Feb 6
First Quarter
Feb 14
Full

Hourly Weather History & Observations

Time (CST) Temp. Windchill Dew Point Humidity Pressure Visibility Wind Dir Wind Speed Gust Speed Precip Events Conditions
12:53 AM 19.9 °F 11.1 °F 14.0 °F 78% 29.72 in 10.0 mi WNW 6.9 mph - N/A   Mostly Cloudy
1:53 AM 19.9 °F 7.3 °F 10.9 °F 68% 29.74 in 10.0 mi West 12.7 mph - N/A   Overcast
2:53 AM 19.9 °F 9.3 °F 10.9 °F 68% 29.75 in 10.0 mi West 9.2 mph - N/A   Overcast
3:53 AM 19.0 °F 6.1 °F 10.9 °F 71% 29.77 in 10.0 mi West 12.7 mph - 0.00 in Snow Light Snow
4:53 AM 17.1 °F 4.3 °F 12.0 °F 81% 29.79 in 9.0 mi West 11.5 mph - 0.00 in Snow Light Snow
5:15 AM 16.0 °F 4.4 °F 12.9 °F 88% 29.77 in 2.0 mi West 9.2 mph - 0.00 in Snow Light Snow
5:32 AM 16.0 °F 3.6 °F 12.9 °F 88% 29.77 in 3.0 mi West 10.4 mph - 0.00 in Snow Light Snow
5:53 AM 15.1 °F 1.8 °F 10.9 °F 84% 29.81 in 5.0 mi West 11.5 mph - 0.00 in Snow Light Snow
7:53 AM 14.0 °F 1.2 °F 9.0 °F 80% 29.86 in 10.0 mi West 10.4 mph - 0.00 in   Overcast
8:53 AM 14.0 °F 1.2 °F 8.1 °F 77% 29.88 in 10.0 mi West 10.4 mph - N/A   Overcast
9:27 AM 14.0 °F 0.5 °F 8.1 °F 77% 29.85 in 10.0 mi West 11.5 mph - 0.00 in Snow Light Snow
9:53 AM 14.0 °F 0.5 °F 8.1 °F 77% 29.90 in 5.0 mi West 11.5 mph - 0.00 in Snow Light Snow
10:53 AM 14.0 °F 1.2 °F 9.0 °F 80% 29.91 in 6.0 mi West 10.4 mph - 0.00 in Snow Light Snow
11:07 AM 12.9 °F -1.6 °F 8.1 °F 81% 29.87 in 6.0 mi WSW 12.7 mph - 0.00 in Snow Light Snow
11:46 AM 12.9 °F -2.2 °F 7.0 °F 77% 29.87 in 3.0 mi WSW 13.8 mph - 0.00 in Snow Light Snow
11:53 AM 12.9 °F -2.8 °F 7.0 °F 77% 29.91 in 5.0 mi WSW 15.0 mph - 0.00 in Snow Light Snow
12:36 PM 12.9 °F -2.8 °F 6.1 °F 74% 29.86 in 10.0 mi West 15.0 mph - 0.00 in   Overcast
12:53 PM 14.0 °F -0.8 °F 7.0 °F 74% 29.90 in 10.0 mi WSW 13.8 mph - 0.00 in   Overcast
1:03 PM 14.0 °F -0.8 °F 6.1 °F 71% 29.86 in 10.0 mi WSW 13.8 mph - N/A   Overcast
1:53 PM 12.9 °F -3.9 °F 7.0 °F 77% 29.92 in 10.0 mi WSW 17.3 mph - N/A   Overcast
2:35 PM 12.9 °F -1.6 °F 6.1 °F 74% 29.89 in 10.0 mi WSW 12.7 mph - N/A   Overcast
2:53 PM 12.9 °F -0.2 °F 6.1 °F 74% 29.94 in 10.0 mi WSW 10.4 mph - N/A   Overcast
3:21 PM 12.9 °F -2.2 °F 6.1 °F 74% 29.92 in 10.0 mi WSW 13.8 mph - N/A   Overcast
3:53 PM 12.9 °F -1.6 °F 6.1 °F 74% 29.97 in 10.0 mi WSW 12.7 mph - N/A   Overcast
4:53 PM 12.9 °F -0.2 °F 9.0 °F 84% 29.99 in 10.0 mi SW 10.4 mph - N/A   Overcast
5:53 PM 12.9 °F 0.7 °F 9.0 °F 84% 30.00 in 7.0 mi SW 9.2 mph - 0.00 in Snow Light Snow
6:06 PM 12.9 °F 0.7 °F 10.0 °F 88% 29.95 in 7.0 mi SW 9.2 mph - 0.00 in Snow Light Snow
6:53 PM 14.0 °F -0.8 °F 10.9 °F 88% 30.01 in 8.0 mi SW 13.8 mph - 0.00 in Snow Light Snow
7:53 PM 14.0 °F 0.5 °F 10.0 °F 84% 30.00 in 9.0 mi WSW 11.5 mph - 0.00 in   Overcast
8:45 PM 14.0 °F -0.2 °F 10.0 °F 84% 29.96 in 10.0 mi West 12.7 mph - N/A   Overcast
8:53 PM 14.0 °F -1.4 °F 10.0 °F 84% 30.01 in 10.0 mi West 15.0 mph - N/A   Overcast
9:53 PM 12.9 °F -0.2 °F 9.0 °F 84% 30.01 in 10.0 mi WSW 10.4 mph - N/A   Overcast
10:30 PM 12.9 °F -0.9 °F 10.0 °F 88% 29.96 in 9.0 mi WSW 11.5 mph - 0.00 in Snow Light Snow
10:53 PM 12.9 °F -0.9 °F 10.0 °F 88% 30.00 in 9.0 mi WSW 11.5 mph - 0.00 in   Overcast
11:23 PM 12.9 °F -0.9 °F 10.0 °F 88% 29.95 in 10.0 mi WSW 11.5 mph - N/A   Overcast
11:53 PM 12.0 °F -1.3 °F 9.0 °F 88% 29.99 in 10.0 mi WSW 10.4 mph - N/A   Overcast